{"data":{"norad_id":67803,"epoch":"2026-05-25T01:47:59.909280Z","epoch_age_seconds":72502,"freshness":"FRESH","line1":"1 67803U 26032G   26145.07499895  .00018046  00000+0  55974-3 0  9997","line2":"2 67803  97.2852 333.1185 0001831  99.7358 260.4092 15.33457339 16662","mean_motion":15.33457339,"eccentricity":0.0001831,"inclination_deg":97.2852,"raan_deg":333.1185,"arg_perigee_deg":99.7358,"mean_anomaly_deg":260.4092,"bstar":0.00055974,"rev_number":1666,"period_min":93.905449038384,"perigee_km":464.25339142354,"apogee_km":466.75953365952,"semimajor_km":6843.6434625415,"source":"CELESTRAK","updated_at":"2026-05-25T13:38:21.693070Z"}}